GFSNW_prec_cloud_003.txt.gz
Cloud_Cover
100 100 100 100 21 92 98 84 22 71 44 31 5 5 5 0 2 0 4 5 5 5 5 0 0 0 0 0 0 0 0 0 0 0 0 0 0 4 1 5 5 2 13 14
100 100 100 100 74 77 99 38 54 72 38 29 5 5 5 4 5 5 5 5 5 14 5 5 0 0 0 0 0 0 0 0 0 0 0 0 0 0 5 5 39 87 90 89
100 100 100 100 99 100 47 30 6 95 13 29 5 47 5 3 5 6 6 5 5 5 5 2 0 0 0 0 0 4 0 0 0 0 0 0 0 0 5 4 85 46 6 98
100 100 100 100 97 100 100 50 9 58 74 66 5 5 5 4 5 5 5 5 5 5 5 3 1 2 0 0 0 0 4 1 0 4 4 4 4 2 5 5 5 42 100 53
100 100 100 100 100 100 100 95 74 80 71 67 28 5 5 5 5 3 5 5 0 0 0 0 0 5 5 0 5 5 4 5 5 5 4 4 5 2 5 5 5 30 14 5
100 100 100 100 100 100 100 100 84 87 52 57 43 6 6 5 5 5 5 0 0 2 2 5 0 0 0 0 5 5 5 5 52 100 51 5 34 5 5 5 5 5 5 5
100 100 100 100 100 100 100 100 78 100 99 96 10 55 14 10 27 5 5 5 5 5 5 5 4 0 0 0 4 5 98 6 63 66 22 37 12 5 5 5 7 5 5 5
100 100 100 100 100 100 100 100 100 62 72 62 5 5 5 5 5 5 5 5 2 5 5 5 5 5 4 5 33 1 1 58 72 91 94 8 1 5 5 5 5 15 5 5
100 100 100 100 100 100 100 100 100 100 94 26 42 7 5 5 5 2 3 5 5 5 5 5 5 5 7 5 5 79 12 6 15 91 98 83 0 5 5 10 63 59 46 87
100 100 100 100 100 100 100 100 100 100 100 100 80 97 21 5 5 5 5 5 5 5 18 77 7 5 5 5 5 5 84 97 100 100 100 10 5 6 72 97 92 100 100 99
100 100 100 100 100 100 100 100 100 100 100 92 65 23 50 62 49 12 5 5 5 88 100 96 99 21 23 20 42 6 5 87 41 82 93 57 62 100 100 94 100 100 75 94
100 100 100 100 100 100 100 100 100 100 100 100 93 56 6 5 5 13 19 5 5 5 71 50 90 98 91 50 25 34 31 9 96 100 33 76 92 100 90 100 100 100 100 100
100 100 100 100 100 100 100 100 100 100 100 100 99 58 6 5 8 5 5 2 0 0 6 8 40 7 76 90 81 17 5 30 47 96 59 84 98 88 100 99 83 85 100 97
100 100 100 100 100 100 100 100 100 100 100 100 100 82 5 5 5 7 35 56 5 34 18 100 100 100 5 84 29 62 88 100 48 90 48 56 99 100 100 98 100 94 23 27
100 100 100 100 100 100 100 100 98 80 64 45 64 6 5 5 26 79 47 24 50 100 100 100 98 74 72 100 88 100 97 85 100 95 100 98 100 100 100 100 97 96 100 71
100 100 100 100 100 100 100 99 84 89 98 87 55 70 76 79 99 97 100 100 84 98 100 100 98 100 99 100 100 100 100 100 100 100 99 100 100 100 42 7 5 5 56 18
100 100 100 100 100 100 100 100 100 100 100 100 100 99 100 100 100 100 100 100 27 68 100 100 94 100 98 100 100 99 100 100 78 100 99 87 98 62 53 5 5 63 7 5
100 100 100 100 100 100 100 100 100 100 100 100 94 93 69 100 100 100 100 100 100 100 96 100 100 92 100 100 100 93 84 90 100 100 90 88 99 40 6 5 36 72 18 5
100 100 100 100 100 100 100 100 100 100 100 100 100 100 100 100 100 100 100 100 100 91 100 100 100 100 100 100 99 96 91 95 100 100 82 96 100 95 28 90 100 56 6 5
100 100 100 100 100 100 100 100 100 100 100 100 100 100 100 100 100 100 100 100 100 100 100 100 100 100 100 100 99 100 100 82 82 100 100 87 12 66 100 99 71 50 11 5
100 100 100 100 100 100 100 100 100 100 100 100 100 100 100 100 100 100 100 100 100 100 89 99 100 98 100 100 100 100 100 100 100 96 49 67 98 12 5 25 97 48 8 2
100 100 100 100 100 100 100 100 100 100 100 100 100 100 100 100 100 100 100 100 95 87 83 90 91 95 94 55 30 42 100 96 44 50 95 97 36 13 20 7 4 2 4 5
100 100 100 100 100 100 100 100 100 100 99 100 100 100 100 100 100 100 99 92 93 77 84 55 93 73 74 84 82 100 67 36 34 99 36 12 5 5 5 2 5 5 5 5
100 100 100 100 100 100 98 75 100 100 100 100 100 100 100 100 100 100 98 92 88 100 100 100 94 28 50 100 100 100 99 100 100 94 14 5 5 76 1 4 5 5 5 5
100 100 100 100 100 100 100 100 100 100 100 100 100 100 100 100 100 100 100 100 100 100 100 100 100 100 100 100 100 100 100 100 88 28 11 52 53 5 1 5 5 5 5 5
100 100 100 100 100 100 100 100 100 100 100 100 100 100 100 100 100 100 100 100 100 100 100 82 83 100 100 100 100 100 98 49 19 55 32 23 5 0 5 5 5 5 5 5
100 100 100 100 100 100 100 100 100 100 100 100 100 100 100 100 100 100 100 100 100 100 99 99 100 100 100 100 100 100 100 100 98 76 11 5 0 5 5 5 5 5 5 41

GFSNW_prec_cloud_006.txt.gz
Cloud_Cover
100 100 100 100 100 100 91 59 26 5 5 6 50 5 5 0 0 0 0 0 0 4 3 4 0 0 0 0 0 0 0 0 0 0 0 0 0 0 0 5 4 27 4 1
100 100 100 100 73 85 82 40 38 35 36 55 59 27 5 0 4 3 1 4 5 5 5 5 0 0 0 0 0 0 0 0 0 0 0 0 4 2 0 1 5 5 79 40
100 100 100 100 100 100 100 88 72 59 11 65 6 5 5 4 5 5 5 14 24 6 5 2 0 0 0 0 0 0 0 0 0 0 3 0 0 2 5 12 10 20 17 75
100 100 100 100 100 82 100 100 11 13 95 85 77 27 5 8 66 5 5 5 5 5 1 1 1 0 1 0 0 0 0 0 5 5 5 5 5 4 4 3 5 61 20 9
100 100 100 100 100 100 100 100 28 58 7 91 100 23 5 45 55 5 5 2 0 0 1 3 1 0 0 0 4 5 0 0 4 5 5 5 0 3 5 3 3 5 5 17
100 100 100 100 100 100 100 100 90 82 62 48 98 75 30 30 5 5 5 1 0 13 0 0 1 5 5 5 5 4 1 0 7 47 14 5 14 5 5 5 5 5 5 35
100 100 100 100 100 100 100 97 100 100 96 68 69 88 34 38 13 5 5 5 5 5 5 5 5 5 5 5 5 5 66 5 70 86 84 27 5 5 53 34 5 5 18 39
100 100 100 100 100 100 100 100 100 100 100 100 49 94 24 5 14 5 5 5 5 5 5 9 84 25 32 22 5 5 4 29 73 96 65 7 5 5 5 5 5 5 6 14
100 100 100 100 100 100 100 100 100 100 100 100 100 52 97 74 31 22 5 5 7 5 0 40 96 10 5 6 23 12 8 1 21 88 80 87 5 5 30 23 87 83 93 96
100 100 100 98 100 100 100 100 100 100 100 100 100 100 100 83 96 53 23 5 26 5 69 91 95 5 5 29 28 72 65 96 94 100 91 61 5 5 36 82 93 66 96 100
100 100 100 100 100 100 100 100 100 100 100 100 100 100 100 100 99 24 18 5 5 52 100 100 75 98 41 24 43 5 12 8 75 86 100 84 45 100 97 37 7 100 77 83
100 100 100 100 100 100 100 100 100 100 100 100 100 100 100 100 100 77 21 5 5 5 41 81 96 100 93 91 6 94 9 7 28 24 5 89 100 97 8 20 91 100 100 100
38 87 100 100 100 100 100 100 100 100 100 100 100 100 100 100 100 83 8 5 5 5 5 6 89 100 6 100 48 80 29 10 6 66 5 68 90 52 38 81 92 100 99 98
99 57 5 94 100 100 100 100 100 100 100 100 100 100 100 100 100 67 24 16 5 5 5 100 100 100 36 96 5 7 11 55 15 71 89 82 34 63 72 100 100 100 96 52
100 100 100 92 52 100 100 100 100 100 100 98 100 100 100 100 100 100 72 74 49 13 100 100 100 50 32 74 79 61 32 14 100 98 94 89 95 97 100 99 69 45 7 20
100 100 100 100 72 100 99 100 100 100 100 100 100 100 98 96 100 80 55 75 93 6 52 90 64 5 6 100 100 100 19 11 54 95 100 100 100 76 17 44 80 10 60 5
100 100 100 100 100 100 86 95 100 100 100 100 100 58 98 100 100 98 100 100 97 71 79 98 48 24 90 100 100 98 53 91 100 100 100 100 99 74 10 14 5 5 5 5
100 100 100 100 100 100 99 100 100 100 100 99 100 96 100 100 100 100 100 100 100 100 90 100 98 76 100 100 96 73 60 93 100 97 84 100 62 5 34 43 5 5 5 19
100 100 100 100 100 100 100 100 100 100 100 100 100 100 100 100 100 100 100 100 100 95 100 100 99 100 100 99 82 47 92 100 100 78 55 11 14 16 10 5 5 27 80 90
100 100 100 100 100 100 100 100 100 100 100 100 100 100 100 100 100 100 100 100 100 100 100 100 100 100 100 100 100 100 100 100 100 62 57 25 62 97 61 43 84 79 43 46
100 100 100 100 100 100 100 100 100 100 100 100 100 100 100 100 100 100 100 100 100 100 98 100 100 100 100 100 100 100 100 100 76 70 86 64 10 11 80 41 43 15 60 89
100 100 100 100 100 100 100 100 100 100 100 100 100 100 100 100 100 100 100 100 100 100 69 100 97 100 100 100 100 100 96 90 14 5 10 26 73 77 59 22 29 5 91 61
100 100 100 100 100 100 100 100 100 100 100 100 100 100 100 100 100 100 100 100 100 77 100 62 79 63 38 34 85 100 65 12 17 84 77 97 100 99 97 57 46 5 19 61
100 100 100 100 100 100 100 100 100 95 100 100 100 100 100 100 100 100 100 100 100 99 98 79 89 30 60 89 100 100 85 46 92 92 66 84 32 55 88 100 21 16 48 5
100 100 100 100 100 100 100 100 100 100 100 100 100 100 100 100 100 97 100 100 94 89 100 63 21 53 98 100 99 47 5 15 32 72 24 84 67 49 80 65 55 61 22 5
100 100 100 100 100 100 100 100 100 100 100 100 100 100 99 100 100 87 100 100 100 100 100 68 68 99 100 94 8 41 75 92 100 98 100 100 79 77 100 100 83 7 13 7
100 100 100 100 100 100 100 100 100 100 100 100 100 100 100 100 100 100 100 100 97 74 70 98 100 100 90 98 100 100 100 100 100 100 100 100 100 81 65 60 5 6 46 74

GFSNW_prec_cloud_009.txt.gz
Cloud_Cover
100 100 100 100 100 100 100 86 42 21 5 5 5 4 3 0 0 0 0 0 0 0 5 5 5 5 0 0 0 0 0 0 0 0 0 0 0 1 0 0 2 5 1 2
100 100 100 100 99 92 72 81 81 10 6 7 5 36 5 4 0 0 0 0 0 0 5 5 5 4 0 0 0 0 0 0 0 0 0 1 1 5 1 2 5 5 24 10
100 100 100 100 100 91 92 52 53 73 9 67 51 58 31 5 5 2 2 0 2 3 5 2 0 0 0 0 0 4 5 3 4 5 5 4 5 5 5 21 36 85 5 99
100 100 100 100 100 58 84 59 34 73 5 38 6 25 36 33 5 5 4 5 5 5 1 0 0 0 0 0 0 0 0 0 0 0 0 5 6 29 5 6 17 82 43 99
100 100 100 100 100 99 9 69 76 22 5 5 5 5 5 61 36 8 5 5 5 0 0 0 0 0 0 0 0 0 0 0 5 0 0 0 0 5 5 5 12 5 89 93
100 100 100 100 100 100 49 9 66 29 7 5 5 5 33 29 56 30 5 5 5 5 0 0 0 0 1 0 4 3 0 2 5 5 7 4 8 20 5 66 88 69 100 100
100 100 100 100 100 100 99 16 58 100 26 5 5 5 7 43 5 5 5 5 5 5 5 5 4 5 5 5 5 3 3 1 40 66 73 52 16 52 24 13 5 59 98 99
100 100 100 100 100 100 100 97 81 100 98 46 13 19 5 25 5 5 6 16 32 53 14 8 14 25 76 48 5 1 0 20 45 79 42 58 18 5 5 5 5 31 64 51
100 100 100 100 100 100 100 100 100 86 85 100 100 93 55 40 94 36 64 52 67 46 5 39 95 10 5 5 5 1 0 10 5 82 63 54 29 97 69 15 63 79 82 40
100 100 100 100 100 100 100 100 100 100 100 100 100 100 98 100 91 94 82 95 56 49 67 91 93 5 5 5 28 72 66 95 70 96 54 18 20 5 4 17 44 50 13 6
100 100 100 100 100 100 100 100 100 100 99 100 100 100 43 21 36 100 100 100 100 100 99 96 50 97 5 5 5 7 30 28 77 76 78 70 24 63 59 75 55 55 23 96
100 100 100 100 100 100 100 100 100 100 100 100 100 100 100 100 96 100 100 100 100 100 100 100 77 98 88 25 5 5 5 7 24 58 28 90 100 100 100 100 95 98 98 100
100 100 100 100 100 100 100 100 100 100 100 100 100 100 100 100 100 100 44 15 61 15 6 8 83 100 6 98 5 10 27 4 29 44 58 97 60 100 100 81 100 13 80 100
100 100 100 100 100 100 100 100 99 83 100 100 100 100 100 100 100 100 42 84 94 92 96 97 100 100 5 74 5 41 81 5 10 70 33 56 73 51 99 86 56 99 97 47
100 100 100 100 100 100 100 100 100 98 99 89 100 100 100 100 100 96 98 100 100 100 100 100 81 5 9 73 44 98 100 10 26 41 98 29 90 98 100 100 94 74 31 12
100 100 100 100 100 100 100 100 100 100 100 100 100 100 100 100 100 100 100 100 100 100 97 88 26 42 19 100 67 100 100 88 6 82 31 36 68 97 100 100 66 5 5 5
100 100 100 100 100 100 82 89 100 100 100 100 100 89 93 100 100 100 100 100 100 100 62 82 74 38 16 100 86 100 75 59 70 76 44 48 100 100 68 91 74 13 5 5
100 100 100 100 100 100 100 95 100 82 98 100 98 93 88 100 100 100 100 100 100 99 51 87 100 83 100 100 100 100 58 32 32 12 64 100 100 100 89 63 6 5 18 6
100 100 100 100 100 100 100 100 100 100 98 60 100 100 93 92 100 100 100 100 100 100 100 100 85 100 98 100 98 63 37 16 68 98 92 99 81 46 29 51 42 13 5 5
100 100 100 100 100 100 100 100 100 100 100 95 100 100 100 100 100 100 100 100 100 100 100 100 100 100 81 100 100 100 71 71 70 79 60 28 88 100 100 100 52 20 5 5
100 100 100 100 100 100 100 100 100 100 100 100 100 100 100 99 100 100 100 100 100 100 100 100 100 72 100 100 100 100 100 98 97 78 98 100 100 100 97 49 29 5 6 34
100 100 100 100 100 100 100 100 100 100 99 100 100 100 99 100 98 97 100 100 100 100 85 100 94 99 100 98 100 100 84 93 96 93 72 98 100 65 5 5 10 26 21 14
100 100 100 100 100 100 100 100 100 100 100 100 100 100 100 100 100 100 100 100 100 100 100 77 46 92 100 100 98 86 70 50 8 5 38 100 86 92 37 9 9 36 5 5
100 100 100 100 100 100 100 100 100 100 100 100 100 100 100 100 100 100 100 100 100 100 100 81 100 100 96 100 87 99 84 38 21 80 97 68 41 30 35 96 18 20 10 86
100 100 100 100 100 100 100 100 100 100 100 100 100 100 100 100 100 100 100 100 100 82 92 100 100 100 100 100 100 98 35 60 82 22 6 45 61 48 6 31 30 38 92 100
100 100 100 100 100 100 100 100 100 100 100 100 100 100 100 100 100 100 100 100 100 100 100 100 100 100 100 100 61 14 50 89 76 92 94 90 53 37 38 62 74 100 100 83
100 100 100 100 100 100 100 100 100 100 100 100 100 100 100 100 100 100 100 100 100 100 100 100 100 100 96 33 96 100 100 99 70 21 40 85 82 60 84 97 66 100 16 78

GFSNW_prec_cloud_015.txt.gz
Cloud_Cover
100 100 100 100 26 100 84 86 78 58 11 9 50 32 6 66 5 0 5 0 0 7 5 9 5 5 0 0 0 0 0 0 0 0 0 0 0 0 2 0 2 5 5 1
100 100 100 100 100 48 83 39 100 100 20 50 43 51 7 7 5 0 0 2 0 0 5 29 5 5 4 1 0 0 0 0 0 0 0 0 0 0 0 4 6 0 1 0
100 100 100 100 100 86 48 81 100 100 52 28 55 72 67 5 5 4 0 0 0 0 5 5 48 27 12 5 0 0 0 0 0 0 0 0 0 0 0 0 2 4 1 3
100 100 100 100 100 60 100 100 100 100 96 62 41 54 21 5 5 2 0 0 0 5 5 5 5 14 5 5 5 0 0 0 0 0 0 0 0 0 0 0 0 0 2 58
100 100 100 100 100 100 100 100 100 5 30 81 96 71 44 5 20 1 5 0 0 1 5 5 5 5 5 4 0 0 0 0 0 0 0 1 4 0 0 0 0 0 4 5
100 100 100 100 100 100 100 100 100 100 100 49 78 8 5 18 28 3 3 5 5 5 1 3 2 3 1 0 0 0 0 0 5 14 2 1 0 0 0 0 0 1 1 2
100 100 100 100 100 92 100 100 93 92 17 100 79 5 5 6 5 5 39 5 5 3 5 5 2 5 5 5 3 4 5 6 58 8 5 5 0 0 0 0 0 0 5 5
100 100 100 100 100 100 100 89 69 37 96 6 11 5 5 34 5 42 6 6 7 69 6 5 5 5 5 5 5 8 5 16 59 85 5 5 5 5 4 4 2 0 1 0
100 100 100 100 100 100 100 100 100 94 56 5 30 5 60 46 26 10 6 8 11 46 8 9 5 5 5 13 18 100 100 49 5 82 6 5 5 5 5 3 4 0 2 5
100 100 100 100 100 100 100 100 100 100 66 90 49 5 34 5 5 35 50 7 15 5 87 100 100 100 91 67 90 9 53 7 10 91 5 4 0 2 4 2 1 0 4 5
100 100 100 100 100 100 100 100 100 100 100 98 12 70 16 5 5 10 54 36 16 83 46 70 81 32 5 51 64 100 5 31 56 62 39 49 0 1 5 5 3 5 5 5
100 100 100 100 100 100 100 100 100 100 100 100 100 99 74 85 61 98 62 49 99 86 99 100 100 100 100 100 97 97 20 20 97 100 50 16 0 3 5 2 5 39 6 59
100 100 100 100 78 99 100 99 100 100 100 100 100 100 100 100 100 100 100 100 100 100 100 100 100 100 100 100 100 100 100 100 100 63 6 5 5 5 5 5 5 8 60 20
100 100 100 100 100 100 92 72 73 100 100 100 100 100 100 100 100 100 100 100 100 100 100 100 100 100 100 100 100 100 100 100 97 5 5 8 5 5 5 5 17 100 99 40
100 100 100 100 100 100 100 40 64 90 59 98 100 100 100 100 98 100 100 100 100 100 100 100 95 80 96 91 98 100 100 100 100 43 52 93 5 85 33 78 100 97 100 94
100 100 100 100 100 100 100 100 100 100 100 99 88 78 43 34 45 100 100 100 100 100 100 100 80 100 100 100 100 100 100 100 100 85 80 42 52 99 100 100 84 55 88 92
100 100 100 100 100 100 100 100 100 100 100 99 88 86 87 76 34 98 100 100 100 100 100 99 100 100 96 100 100 100 100 100 100 100 100 92 100 100 100 98 54 82 100 94
100 100 100 100 89 100 100 100 100 100 100 100 83 98 100 100 100 100 100 100 100 100 100 100 100 100 100 100 100 100 100 100 100 100 100 100 99 100 100 97 91 100 63 61
100 100 100 100 100 100 100 100 100 100 100 100 100 100 100 100 100 100 100 100 100 100 100 100 82 100 94 100 100 100 100 100 100 100 100 100 100 100 99 100 100 59 42 22
100 99 100 100 100 100 100 100 100 99 73 68 100 100 100 100 100 100 100 100 100 100 100 100 100 100 100 100 100 100 100 100 100 100 100 100 100 100 100 100 100 100 100 83
100 100 100 100 100 100 100 100 100 100 100 100 99 100 100 100 100 100 100 100 100 100 41 97 71 86 100 100 100 100 100 100 100 100 100 100 100 100 100 100 98 100 76 97
100 100 100 100 100 100 100 100 100 100 100 100 100 100 100 100 100 100 100 100 100 100 91 100 100 100 100 100 100 100 100 100 100 100 100 100 100 100 98 100 95 95 100 97
100 100 100 100 100 100 100 100 100 100 100 100 100 100 100 100 100 100 100 100 100 100 100 100 100 100 100 100 100 100 100 100 100 100 100 100 100 98 98 100 100 93 54 87
100 100 100 100 100 100 100 100 100 100 100 100 100 100 100 100 100 100 100 100 100 100 100 82 100 100 100 100 100 100 100 100 100 100 100 100 100 100 100 100 86 100 100 100
100 100 100 100 100 100 100 100 100 100 100 100 100 100 100 100 100 100 100 100 100 100 100 100 100 100 100 100 100 100 100 100 100 100 100 100 100 100 100 100 100 100 100 100
100 100 100 100 100 100 100 100 100 100 100 100 100 100 100 100 100 100 100 100 100 100 100 100 100 100 100 100 100 100 100 100 100 100 100 100 100 100 100 100 100 100 100 100
100 100 100 100 100 100 100 100 100 100 100 100 100 100 100 100 100 100 100 100 100 100 100 100 100 100 100 100 100 100 100 100 100 100 100 100 100 100 100 100 100 100 100 100